Location: Hartman Creek State Park
(44.3257°N, 89.2134°W)
Time: 18:24:24
(UTC-05:00)

Terra - Visible Passes

Search period start: 26 August 2016 00:00
Search period end: 05 September 2016 00:00
Orbit: 702 x 703 km, 98.2° (Epoch: 26 August)

Date Brightness Start Highest point End Pass type
(mag) Time Alt. Az. Time Alt. Az. Time Alt. Az.
26 Aug 3.7 21:28:05 15° ENE 21:28:39 15° ENE 21:31:19 10° NNE visible
26 Aug 2.6 23:06:58 50° NW 23:06:58 50° NW 23:10:34 10° NNW visible
27 Aug 2.8 22:11:26 34° NE 22:11:26 34° NE 22:15:16 10° N visible
27 Aug 3.8 23:50:19 23° WNW 23:50:19 23° WNW 23:52:49 10° NW visible
28 Aug 3.9 21:15:54 11° ENE 21:16:34 12° ENE 21:18:15 10° NE visible
28 Aug 2.5 22:54:47 51° N 22:54:47 51° N 22:58:21 10° NNW visible
29 Aug 3.1 21:59:16 27° NE 21:59:16 27° NE 22:02:49 10° N visible
29 Aug 3.6 23:38:09 27° NW 23:38:09 27° NW 23:40:48 10° NNW visible
30 Aug 2.6 22:42:38 46° N 22:42:38 46° N 22:46:05 10° N visible
31 Aug 4.6 00:21:31 11° WNW 00:21:31 11° WNW 00:22:04 10° WNW visible
31 Aug 3.4 21:47:05 21° ENE 21:47:05 21° ENE 21:50:16 10° NNE visible
31 Aug 3.5 23:25:59 31° NW 23:25:59 31° NW 23:28:43 10° NNW visible
01 Sep 2.8 22:30:27 39° NNE 22:30:27 39° NNE 22:33:45 10° N visible
02 Sep 4.4 00:09:20 14° WNW 00:09:20 14° WNW 00:10:30 10° NW visible
02 Sep 3.7 21:34:55 17° NE 21:34:55 17° NE 21:37:37 10° NNE visible
02 Sep 3.3 23:13:49 34° NNW 23:13:49 34° NNW 23:16:34 10° NNW visible
03 Sep 3.0 22:18:17 32° NNE 22:18:17 32° NNE 22:21:23 10° N visible
03 Sep 4.3 23:57:10 17° NW 23:57:10 17° NW 23:58:41 10° NW visible
04 Sep 3.9 21:22:46 13° NE 21:22:46 13° NE 21:24:44 10° NNE visible
04 Sep 3.3 23:01:39 34° NNW 23:01:39 34° NNW 23:04:22 10° NNW visible
